Погода в Новом Златоусте

Россия / Свердловская область     56°13′12″N   58°27′06″E
темп.,
°C
ветер,
м/с
пор.,
м/с
влажн.,
%
обл.,
%
осадки,
мм/ч
давл.,
гПа
погр.,
м
2 июля, сб
сб223:00+12св2275100 0.1 101515
02:00+11всв2274100 0.0 101511
05:00+10св1178100 0.0 101510
08:00+14св1269100 0.0 1014178
11:00+17сз226091 0.0 1014690
14:00+20сз234980 0.0 10131554
17:00+20ссз12466 0.0 10131386
20:00+18сз22674 0.0 101233
3 июля, вс
вс323:00+13ссз11766 0.0 101311
02:00+11с117965 0.0 101310
05:00+11ссв008348 0.0 101210
08:00+15ссз12725 0.0 1012237
11:00+19зсз226043 0.0 1010922
14:00+21сз335052 0.0 10091490
17:00+20с456068 0.1 1008774
20:00+15с478529 1.1 1008249
4 июля, пн
пн423:00+13ссв489587 1.3 1009254
02:00+12св4109796 0.2 1009373
05:00+12св51097100 0.4 1008510
08:00+12всв6129092 0.1 1010636
11:00+16всв686014 0.1 10101395
14:00+16ссв476281 0.0 1010584
17:00+15св587662 0.8 1011649
20:00+13св6108055 0.6 1012598
5 июля, вт
вт523:00+8св258856 0.6 101496
02:00+6ссв33910 0.0 101456
05:00+5св35905 0.0 101686
08:00+10с3569100 0.0 1016310
11:00+14с3453100 0.0 10151198
14:00+17сз2548100 0.0 10151601
17:00+18зсз5557100 0.0 10141117
20:00+16зсз3676100 0.0 1014181
6 июля, ср
ср623:00+13з378097 0.0 1014139
02:00+13зюз2581100 0.0 1013119
05:00+13юз2393100 0.6 101462
08:00+13юз3596100 0.8 1013144
11:00+16з3689100 1.6 1013312
14:00+22сз577077 1.3 10121248
17:00+21ссз478271 5.7 1011501
20:00+19ссв368834 4.5 1012177